[[{"header":{"parameterUnit":"m.s-1","parameterCategory":1,"la1":30.2991,"la2":30.254,"lo1":-89.0895,"lo2":-89.0444,"dy":0.0017,"dx":0.0017,"nx":28,"ny":28,"refTime":"2024-07-18T03:00:00:Z","depth":0,"parameterNumber":2,"parameterNumberName":"U-component_of_WINDS"},"data":[0,0,0,0,0,0,0,0,0,0,0,0,0,0,0,0,0,0,0,0,0,0,0,0,0,0,0,0,0,0,0,0,0,0,0,0,0,0,0,0,0,0,0,0,0,0,0,0,0,0,0,0,0,0,0,0,0,0,3.1942,3.1942,0,3.1929,3.1929,3.1929,3.1878,3.1876,3.1875,3.1874,3.186,3.186,3.1861,0,0,0,0,0,0,0,0,0,0,0,0,0,3.192,3.192,3.1942,3.1942,3.1942,3.1929,3.1929,3.1929,3.1878,3.1876,3.1875,3.1874,3.1859,3.186,3.1861,0,0,0,0,0,0,0,0,0,0,0,0,0,3.192,3.192,3.1942,3.1915,3.1912,3.1929,3.1929,3.1929,3.1878,3.1876,3.1875,3.1873,3.1859,3.186,3.1861,3.1903,0,0,3.1865,3.1865,0,0,0,0,0,0,0,0,3.192,3.1921,3.1919,3.1917,3.1914,3.1903,3.1916,3.192,3.1878,3.1891,3.1874,3.1872,3.1875,3.1875,3.1877,3.1903,3.1902,3.1865,3.1865,3.1866,3.1866,0,0,0,0,0,0,0,3.192,3.1921,3.1937,3.1919,3.1916,3.1902,3.19,3.1916,3.1893,3.189,3.1886,3.1885,3.1874,3.1876,3.1876,3.1902,3.1865,3.1866,3.1866,3.1867,3.1958,3.196,0,0,0,0,0,0,3.1924,3.1922,3.1937,3.1936,3.1913,3.1904,3.1902,3.1908,3.1893,3.1889,3.1887,3.1883,3.1875,3.1875,3.1875,3.1921,3.1866,3.1867,3.1867,3.1956,3.1958,3.196,0,0,0,0,0,0,3.1924,3.1926,3.1938,3.1928,3.1928,3.1906,3.1914,3.1909,3.1911,3.1891,3.1886,3.1893,3.1873,3.1874,3.1896,3.1919,3.1867,3.1868,3.1954,3.1957,3.1959,3.2014,0,0,0,0,0,0,3.1924,3.1927,3.1943,3.1929,3.1929,3.196,3.1915,3.191,3.1913,3.1908,3.1895,3.1892,3.1872,3.1895,3.1897,3.192,3.1869,3.1952,3.1955,3.1959,3.201,3.2018,3.2025,0,0,0,0,0,3.1923,3.1959,3.1944,3.1946,3.1949,3.1961,3.1961,3.1938,3.1915,3.1931,3.1917,3.1892,3.1917,3.1897,3.19,3.1923,3.195,3.1954,3.1958,3.2006,3.2016,3.2025,0,0,0,0,0,0,3.1977,3.1957,3.194,3.1973,3.1969,3.1953,3.1972,3.195,3.1953,3.1948,3.1919,3.1916,3.1942,3.1935,3.1914,3.1961,3.1929,3.1934,3.1965,3.1974,3.1982,3.1982,3.187,0,0,0,0,0,3.1993,3.2005,3.1986,3.2017,3.2016,3.1994,3.1999,3.1981,3.1976,3.1974,3.1962,3.1958,3.1964,3.1969,3.1974,3.2009,3.2004,3.2026,3.2034,3.204,3.2044,3.2059,3.2067,3.1974,3.1974,3.1973,0,0,3.2025,3.2016,3.2025,3.2027,3.2022,3.2034,3.1993,3.2008,3.2016,3.1976,3.1996,3.1987,3.198,3.2008,3.202,3.2003,3.2069,3.2045,3.2051,3.2051,3.2064,3.2072,3.208,3.1976,3.1976,3.1975,0,0,3.2089,3.2085,3.2108,3.2104,3.2097,3.2082,3.2088,3.2074,3.2067,3.2086,3.2056,3.2064,3.2077,3.2072,3.2071,3.2132,3.2108,3.2135,3.2174,3.2189,3.2196,3.2202,3.2221,3.2229,3.2139,3.2139,3.2139,0,3.213,3.2147,3.2123,3.2139,3.214,3.2104,3.2127,3.2124,3.2119,3.2119,3.2101,3.2114,3.2107,3.2132,3.2147,3.2148,3.2152,3.2135,3.2197,3.2203,3.2209,3.2226,3.2234,3.2142,3.2142,3.2142,3.2141,0,3.2196,3.2209,3.2228,3.2224,3.2227,3.2246,3.2223,3.223,3.2212,3.2198,3.2217,3.2207,3.2208,3.2214,3.2197,3.2235,3.2225,3.2203,3.2169,3.2221,3.2237,3.2244,3.2147,3.2146,3.2145,3.2144,0,0,3.2294,3.2275,3.2282,3.2278,3.2267,3.2275,3.2292,3.2294,3.2298,3.2296,3.2307,3.2318,3.2297,3.2296,3.2278,3.2291,3.2337,3.2267,3.2266,3.2278,3.2375,3.239,3.2399,3.2321,3.2323,3.2324,3.2375,0,3.2353,3.2381,3.2358,3.239,3.2399,3.2365,3.2379,3.2373,3.2361,3.2367,3.2353,3.236,3.2333,3.2331,3.2343,3.2329,3.2355,3.2325,3.233,3.233,3.233,3.2408,3.2424,3.2473,3.2381,3.2382,3.2383,0,3.2425,3.2425,3.2457,3.2442,3.2445,3.2458,3.2456,3.2463,3.2454,3.2444,3.2443,3.2421,3.2434,3.2403,3.2421,3.24,3.2401,3.2394,3.2395,3.2393,3.2358,3.2405,3.2489,3.2495,3.2393,3.2393,3.2392,0,3.249,3.2498,3.2517,3.2516,3.2499,3.2508,3.2502,3.2492,3.2493,3.2492,3.2492,3.2492,3.2491,3.2491,3.2469,3.2449,3.2488,3.2456,3.2478,3.2479,3.2486,3.2486,3.2569,3.2491,3.2491,3.2491,3.2491,0,3.2556,3.2577,3.2545,3.2557,3.2578,3.2552,3.2573,3.2563,3.2554,3.2562,3.2534,3.2542,3.2513,3.2518,3.25,3.2515,3.2516,3.2507,3.2502,3.2508,3.2509,3.2507,3.2502,3.2493,3.2493,3.2492,3.2492,0,3.2631,3.2611,3.2629,3.2612,3.2608,3.2624,3.2608,3.2617,3.2603,3.2614,3.2615,3.2592,3.2596,3.2574,3.2574,3.2562,3.2585,3.2575,3.2587,3.2583,3.2606,3.2603,3.2688,3.2697,3.2617,3.2618,3.2618,0,3.2673,3.2688,3.2672,3.2675,3.267,3.2676,3.2676,3.2651,3.2653,3.2644,3.2654,3.2655,3.2655,3.2662,3.2645,3.2644,3.2632,3.2662,3.2632,3.2637,3.2629,3.2628,3.2628,3.2668,3.2669,3.267,3.267,0,3.275,3.2739,3.2742,3.274,3.2742,3.274,3.2736,3.274,3.2712,3.2716,3.2719,3.2718,3.2718,3.2718,3.2714,3.2706,3.2683,3.268,3.2685,3.269,3.2696,3.269,3.2602,3.2678,3.2677,3.2677,3.2676,3.2676,3.2808,3.2818,3.2808,3.2811,3.2805,3.2801,3.2808,3.2794,3.2797,3.2794,3.2779,3.2785,3.2774,3.2766,3.276,3.2763,3.2748,3.2756,3.2757,3.2759,3.2761,3.2697,3.2762,3.2762,3.2762,3.2761,3.2761,0,3.2881,3.2872,3.2875,3.2869,3.2871,3.285,3.2844,3.2847,3.2852,3.2844,3.2844,3.2847,3.2847,3.283,3.2828,3.2833,3.2822,3.2833,3.2831,3.2829,3.2776,3.2771,3.2842,3.2842,3.2842,3.2842,3.2842,3.2842,3.2918,3.2934,3.2921,3.2933,3.2924,3.2929,3.2927,3.2922,3.2916,3.292,3.292,3.2909,3.2897,3.2893,3.2892,3.2887,3.2886,3.29,3.2891,3.2841,3.2833,3.2826,3.282,3.2901,3.2901,3.2943,3.2944,3.2944]},{"header":{"parameterUnit":"m.s-1","parameterCategory":1,"la1":30.2991,"la2":30.254,"lo1":-89.0895,"lo2":-89.0444,"dy":0.0017,"dx":0.0017,"nx":28,"ny":28,"refTime":"2024-07-18T03:00:00:Z","depth":0,"parameterNumber":3,"parameterNumberName":"V-component_of_WINDS"},"data":[0,0,0,0,0,0,0,0,0,0,0,0,0,0,0,0,0,0,0,0,0,0,0,0,0,0,0,0,0,0,0,0,0,0,0,0,0,0,0,0,0,0,0,0,0,0,0,0,0,0,0,0,0,0,0,0,0,0,5.0698,5.0698,0,5.0674,5.0674,5.0674,5.062,5.0619,5.0618,5.0617,5.0594,5.0594,5.0594,0,0,0,0,0,0,0,0,0,0,0,0,0,5.07,5.07,5.0698,5.0698,5.0698,5.0674,5.0674,5.0674,5.062,5.0619,5.0618,5.0616,5.0594,5.0594,5.0595,0,0,0,0,0,0,0,0,0,0,0,0,0,5.069,5.07,5.0698,5.0668,5.0665,5.0674,5.0674,5.0673,5.0621,5.0619,5.0617,5.0616,5.0593,5.0594,5.0595,5.0631,0,0,5.0596,5.0597,0,0,0,0,0,0,0,0,5.0691,5.069,5.0673,5.067,5.0667,5.0648,5.0666,5.0659,5.0621,5.0638,5.0617,5.0615,5.0613,5.0612,5.0611,5.063,5.0629,5.0597,5.0597,5.0597,5.0597,0,0,0,0,0,0,0,5.0691,5.0691,5.0689,5.0673,5.0669,5.0657,5.0653,5.0664,5.0635,5.0636,5.0632,5.063,5.0611,5.0611,5.061,5.0629,5.0596,5.0597,5.0597,5.0598,5.0676,5.0678,0,0,0,0,0,0,5.0696,5.0692,5.0689,5.0688,5.0675,5.0658,5.0654,5.0656,5.0635,5.063,5.0631,5.0627,5.0611,5.061,5.0609,5.065,5.0597,5.0598,5.0598,5.0675,5.0677,5.0679,0,0,0,0,0,0,5.0696,5.0696,5.069,5.0689,5.0687,5.066,5.0662,5.0656,5.0656,5.0631,5.0626,5.0636,5.0609,5.0609,5.0626,5.0649,5.0598,5.0599,5.0673,5.0675,5.0678,5.0733,0,0,0,0,0,0,5.0697,5.0697,5.071,5.0689,5.0687,5.0707,5.0664,5.0657,5.0657,5.0652,5.0634,5.063,5.0608,5.0625,5.0627,5.0648,5.0599,5.067,5.0674,5.0677,5.0729,5.0737,5.0744,0,0,0,0,0,5.0697,5.0727,5.0711,5.0711,5.0703,5.0709,5.0707,5.0681,5.0659,5.0672,5.0656,5.063,5.0646,5.0628,5.0629,5.0651,5.0669,5.0673,5.0677,5.0725,5.0735,5.0743,0,0,0,0,0,0,5.0751,5.0724,5.0706,5.073,5.0722,5.0699,5.0715,5.0693,5.0691,5.0686,5.0655,5.0651,5.0673,5.0664,5.0644,5.0685,5.0653,5.0658,5.069,5.0699,5.0707,5.0708,5.06,0,0,0,0,0,5.0766,5.0772,5.0748,5.0772,5.0769,5.0743,5.0744,5.0725,5.0716,5.0712,5.0698,5.069,5.0693,5.0696,5.0698,5.0728,5.0723,5.0744,5.0751,5.0757,5.0761,5.0776,5.0784,5.0691,5.0691,5.0691,0,0,5.0797,5.0782,5.0788,5.0782,5.0774,5.0781,5.074,5.075,5.0755,5.0714,5.0729,5.0718,5.0708,5.0732,5.0741,5.0725,5.0786,5.0762,5.0768,5.0768,5.078,5.0789,5.0797,5.0694,5.0694,5.0693,0,0,5.0855,5.0846,5.0864,5.0856,5.0844,5.0827,5.0831,5.0813,5.0804,5.0818,5.0787,5.0794,5.08,5.0794,5.0791,5.0849,5.0825,5.0851,5.0889,5.0904,5.0911,5.0918,5.0937,5.0945,5.0855,5.0855,5.0855,0,5.0895,5.0904,5.0876,5.0887,5.0886,5.0849,5.0867,5.0861,5.0851,5.085,5.0832,5.0839,5.083,5.0851,5.0865,5.0865,5.0869,5.0852,5.0913,5.0919,5.0924,5.0942,5.095,5.0858,5.0858,5.0857,5.0857,0,5.0953,5.096,5.0976,5.0966,5.0966,5.0982,5.0956,5.096,5.0941,5.0926,5.0942,5.0929,5.0928,5.0932,5.0914,5.0951,5.0941,5.0918,5.0885,5.0936,5.0953,5.096,5.0862,5.0861,5.086,5.086,0,0,5.1043,5.1018,5.1024,5.1019,5.1004,5.1009,5.1023,5.102,5.1024,5.1019,5.1029,5.1036,5.1015,5.1012,5.0993,5.1006,5.1052,5.0982,5.0981,5.0994,5.1091,5.1107,5.1115,5.1036,5.1038,5.1039,5.1091,0,5.1098,5.1118,5.1094,5.112,5.1126,5.1092,5.1104,5.1096,5.1082,5.1086,5.1072,5.1076,5.1049,5.1047,5.1059,5.1044,5.107,5.104,5.1045,5.1046,5.1047,5.1124,5.1141,5.1191,5.1098,5.1099,5.1099,0,5.1163,5.1159,5.1186,5.1169,5.117,5.1181,5.1177,5.1181,5.1172,5.1161,5.1159,5.1136,5.1149,5.1118,5.1135,5.1115,5.1116,5.1109,5.1111,5.1109,5.1074,5.1123,5.1206,5.1213,5.111,5.1109,5.1108,0,5.1224,5.1227,5.1243,5.124,5.1221,5.1229,5.1221,5.121,5.1211,5.1208,5.1207,5.1207,5.1206,5.1206,5.1184,5.1164,5.1203,5.1171,5.1194,5.1195,5.1203,5.1202,5.1286,5.1206,5.1206,5.1206,5.1206,0,5.1286,5.1304,5.127,5.128,5.1299,5.1272,5.1291,5.128,5.127,5.1278,5.1249,5.1256,5.1227,5.1232,5.1215,5.1231,5.1232,5.1223,5.1218,5.1225,5.1226,5.1224,5.1219,5.1208,5.1208,5.1207,5.1207,0,5.1357,5.1336,5.1351,5.1332,5.1327,5.1342,5.1325,5.1333,5.1319,5.1328,5.1329,5.1306,5.131,5.1289,5.1289,5.1278,5.1302,5.1292,5.1305,5.1301,5.1325,5.1323,5.1409,5.1419,5.1335,5.1336,5.1337,0,5.1397,5.1409,5.1391,5.1394,5.1388,5.1392,5.1392,5.1367,5.1368,5.1359,5.1368,5.137,5.137,5.1378,5.1362,5.1362,5.1351,5.1381,5.135,5.1356,5.1349,5.1348,5.1349,5.1387,5.1388,5.1389,5.1389,0,5.147,5.1459,5.1459,5.1457,5.1458,5.1455,5.145,5.1454,5.1426,5.143,5.1433,5.1433,5.1433,5.1435,5.1432,5.1425,5.1403,5.14,5.1405,5.1411,5.1417,5.1413,5.1321,5.1397,5.1396,5.1396,5.1395,5.1395,5.1525,5.1534,5.1523,5.1525,5.1519,5.1515,5.1522,5.1508,5.1511,5.1508,5.1494,5.15,5.1491,5.1484,5.1479,5.1484,5.147,5.1477,5.1479,5.1481,5.1485,5.1418,5.1484,5.1483,5.1483,5.1483,5.1483,0,5.1595,5.1586,5.1588,5.1582,5.1584,5.1563,5.1557,5.156,5.1566,5.1559,5.1559,5.1564,5.1566,5.155,5.155,5.1557,5.1546,5.1557,5.1556,5.1554,5.1498,5.1493,5.1566,5.1566,5.1566,5.1566,5.1566,5.1566,5.1631,5.1645,5.1633,5.1644,5.1635,5.1641,5.1639,5.1636,5.163,5.1636,5.1637,5.1627,5.1617,5.1616,5.1617,5.1612,5.1613,5.1627,5.1619,5.1566,5.1558,5.1551,5.1545,5.1628,5.1628,5.1674,5.1674,5.1675]}]]